Weather History for KVCV - October, 2012

Change the Weather History Date:

Wednesday, October 3, 2012

  Actual Average (WUND) Record (WUND)
Temperature  
Mean Temperature 76 °F -  
Max Temperature 91 °F - - (-1)
Min Temperature 62 °F - - (-1)
Cooling Degree Days 12    
Growing Degree Days 26 (Base 50)    
Moisture  
Dew Point 35 °F    
Average Humidity 25    
Maximum Humidity 45    
Minimum Humidity 10    
Precipitation  
Precipitation 0.00 in - - ()
Sea Level Pressure  
Sea Level Pressure 30.01 in    
Wind  
Wind Speed 10 mph (SSE)    
Max Wind Speed 30 mph    
Max Gust Speed 38 mph    
Visibility 10 miles    
Events      
Averages and records for this station are not official NWS values.
T = Trace of Precipitation, MM = Missing Value Source: NWS Daily Summary

Daily Weather History Graph

Daily Weather History Graph

Search for Another Location

Airport or City:

Trip Planner

Search our weather history database for the weather conditions in past years. The results will help you decide how hot, cold, wet, or windy it might be!

Date:

Astronomy

Oct. 03, 2012 Rise Set
Actual Time 6:46 AM PDT 6:30 PM PDT
Civil Twilight 6:20 AM PDT 6:55 PM PDT
Nautical Twilight 5:51 AM PDT 7:24 PM PDT
Astronomical Twilight 5:22 AM PDT 7:53 PM PDT
Moon 8:35 PM PDT 10:03 AM PDT
Length of Visible Light 12h 34m
Length of Day
11h 43m
Waning Gibbous, 88% of the Moon is Illuminated
Oct 3
Waning Gibbous
Oct 8
Last Quarter
Oct 15
New
Oct 21
First Quarter
Oct 29
Full

Hourly Weather History & Observations

Time (PDT) Temp. Dew Point Humidity Pressure Visibility Wind Dir Wind Speed Gust Speed Precip Events Conditions
12:15 AM 71.6 °F 37.4 °F 29% 29.98 in 10.0 mi SSE 8.1 mph - N/A   Clear
12:35 AM 69.8 °F 39.2 °F 33% 29.98 in 10.0 mi SSE 8.1 mph - N/A   Clear
12:55 AM 69.8 °F 39.2 °F 33% 29.98 in 10.0 mi SSE 8.1 mph - N/A   Clear
1:15 AM 69.8 °F 37.4 °F 31% 29.99 in 10.0 mi SE 8.1 mph - N/A   Clear
1:35 AM 66.2 °F 37.4 °F 35% 29.99 in 10.0 mi SSE 8.1 mph - N/A   Clear
1:55 AM 66.2 °F 39.2 °F 37% 29.99 in 10.0 mi SE 6.9 mph - N/A   Clear
2:15 AM 66.2 °F 39.2 °F 37% 29.99 in 10.0 mi SSE 9.2 mph - N/A   Clear
2:35 AM 66.2 °F 41.0 °F 40% 29.99 in 10.0 mi SSE 9.2 mph - N/A   Clear
2:55 AM 66.2 °F 41.0 °F 40% 29.99 in 10.0 mi SE 6.9 mph - N/A   Clear
3:15 AM 66.2 °F 42.8 °F 43% 29.99 in 10.0 mi SE 8.1 mph - N/A   Clear
3:55 AM 66.2 °F 42.8 °F 43% 29.99 in 10.0 mi SE 6.9 mph - N/A   Clear
4:15 AM 66.2 °F 42.8 °F 43% 29.99 in 10.0 mi SE 8.1 mph - N/A   Clear
4:35 AM 64.4 °F 42.8 °F 45% 29.99 in 10.0 mi SE 8.1 mph - N/A   Clear
4:55 AM 64.4 °F 41.0 °F 42% 29.99 in 10.0 mi SE 9.2 mph - N/A   Clear
5:15 AM 64.4 °F 41.0 °F 42% 29.99 in 10.0 mi SSE 5.8 mph - N/A   Clear
5:35 AM 62.6 °F 41.0 °F 45% 30.00 in 10.0 mi SE 5.8 mph - N/A   Clear
5:55 AM 62.6 °F 39.2 °F 42% 30.00 in 10.0 mi SE 9.2 mph - N/A   Clear
6:15 AM 64.4 °F 39.2 °F 40% 30.00 in 10.0 mi SE 6.9 mph - N/A   Clear
6:35 AM 64.4 °F 39.2 °F 40% 30.01 in 10.0 mi ESE 5.8 mph - N/A   Clear
6:55 AM 64.4 °F 39.2 °F 40% 30.01 in 10.0 mi SE 6.9 mph - N/A   Clear
7:15 AM 64.4 °F 39.2 °F 40% 30.02 in 10.0 mi ESE 9.2 mph - N/A   Clear
7:35 AM 68.0 °F 39.2 °F 35% 30.02 in 10.0 mi ESE 5.8 mph - N/A   Clear
7:55 AM 69.8 °F 37.4 °F 31% 30.03 in 10.0 mi ESE 4.6 mph - N/A   Clear
8:15 AM 71.6 °F 37.4 °F 29% 30.03 in 10.0 mi ESE 6.9 mph - N/A   Clear
8:35 AM 73.4 °F 37.4 °F 27% 30.04 in 10.0 mi ESE 6.9 mph - N/A   Clear
8:55 AM 77.0 °F 37.4 °F 24% 30.04 in 10.0 mi ESE 5.8 mph - N/A   Clear
9:15 AM 78.8 °F 37.4 °F 23% 30.04 in 10.0 mi ESE 5.8 mph - N/A   Clear
9:35 AM 80.6 °F 37.4 °F 21% 30.04 in 10.0 mi SE 6.9 mph - N/A   Clear
9:55 AM 84.2 °F 33.8 °F 16% 30.04 in 10.0 mi South 9.2 mph - N/A   Clear
10:15 AM 86.0 °F 32.0 °F 14% 30.04 in 10.0 mi South 9.2 mph - N/A   Scattered Clouds
10:35 AM 87.8 °F 30.2 °F 13% 30.04 in 10.0 mi South 10.4 mph - N/A   Scattered Clouds
10:55 AM 89.6 °F 30.2 °F 12% 30.03 in 10.0 mi South 11.5 mph - N/A   Clear
11:15 AM 89.6 °F 30.2 °F 12% 30.03 in 10.0 mi South 9.2 mph - N/A   Scattered Clouds
11:35 AM 89.6 °F 28.4 °F 11% 30.03 in 10.0 mi SSE 6.9 mph - N/A   Scattered Clouds
11:55 AM 91.4 °F 30.2 °F 11% 30.02 in 10.0 mi SE 5.8 mph - N/A   Scattered Clouds
12:15 PM 91.4 °F 28.4 °F 10% 30.02 in 10.0 mi West 4.6 mph - N/A   Scattered Clouds
12:35 PM 91.4 °F 28.4 °F 10% 30.01 in 10.0 mi South 8.1 mph - N/A   Scattered Clouds
12:55 PM 91.4 °F 30.2 °F 11% 30.00 in 10.0 mi ESE 10.4 mph 18.4 mph N/A   Scattered Clouds
1:15 PM 91.4 °F 30.2 °F 11% 30.00 in 10.0 mi South 13.8 mph 19.6 mph N/A   Scattered Clouds
1:35 PM 91.4 °F 30.2 °F 11% 29.98 in 10.0 mi SSE 11.5 mph 23.0 mph N/A   Scattered Clouds
1:55 PM 91.4 °F 30.2 °F 11% 29.99 in 10.0 mi SSE 17.3 mph 26.5 mph N/A   Scattered Clouds
2:15 PM 91.4 °F 30.2 °F 11% 29.98 in 10.0 mi SSE 24.2 mph 29.9 mph N/A   Scattered Clouds
2:35 PM 91.4 °F 30.2 °F 11% 29.98 in 10.0 mi SE 28.8 mph 33.4 mph N/A   Scattered Clouds
2:55 PM 89.6 °F 30.2 °F 12% 29.98 in 10.0 mi SE 26.5 mph 32.2 mph N/A   Scattered Clouds
3:15 PM 89.6 °F 30.2 °F 12% 29.98 in 10.0 mi SSE 27.6 mph 35.7 mph N/A   Scattered Clouds
3:35 PM 89.6 °F 30.2 °F 12% 29.98 in 7.0 mi SSE 27.6 mph 33.4 mph N/A   Scattered Clouds
3:55 PM 87.8 °F 30.2 °F 13% 29.98 in 10.0 mi SSE 28.8 mph 38.0 mph N/A   Scattered Clouds
4:15 PM 87.8 °F 30.2 °F 13% 29.98 in 10.0 mi SE 29.9 mph 36.8 mph N/A   Scattered Clouds
4:35 PM 86.0 °F 30.2 °F 13% 29.99 in 10.0 mi SSE 28.8 mph 34.5 mph N/A   Scattered Clouds
4:55 PM 84.2 °F 30.2 °F 14% 29.99 in 10.0 mi SSE 26.5 mph 34.5 mph N/A   Clear
5:15 PM 84.2 °F 32.0 °F 15% 29.98 in 10.0 mi SSE 25.3 mph 31.1 mph N/A   Clear
5:35 PM 82.4 °F 32.0 °F 16% 29.98 in 10.0 mi SSE 24.2 mph 32.2 mph N/A   Clear
5:55 PM 82.4 °F 32.0 °F 16% 29.99 in 10.0 mi SSE 25.3 mph 31.1 mph N/A   Clear
6:15 PM 80.6 °F 32.0 °F 17% 29.99 in 10.0 mi SSE 23.0 mph 28.8 mph N/A   Clear
6:35 PM 80.6 °F 30.2 °F 16% 29.99 in 10.0 mi SSE 19.6 mph 26.5 mph N/A   Clear
6:55 PM 78.8 °F 30.2 °F 17% 30.00 in 10.0 mi SSE 18.4 mph 24.2 mph N/A   Clear
7:15 PM 78.8 °F 33.8 °F 20% 30.00 in 10.0 mi SSE 17.3 mph 20.7 mph N/A   Clear
7:35 PM 77.0 °F 33.8 °F 21% 30.02 in 10.0 mi South 6.9 mph 20.7 mph N/A   Clear
7:55 PM 77.0 °F 33.8 °F 21% 30.03 in 10.0 mi Calm Calm - N/A   Clear
8:15 PM 75.2 °F 33.8 °F 22% 30.03 in 10.0 mi East 3.5 mph - N/A   Clear
8:35 PM 73.4 °F 33.8 °F 23% 30.03 in 10.0 mi SSE 4.6 mph - N/A   Clear
8:55 PM 75.2 °F 35.6 °F 24% 30.04 in 10.0 mi SSE 9.2 mph - N/A   Clear
9:15 PM 73.4 °F 35.6 °F 25% 30.04 in 10.0 mi SSE 4.6 mph - N/A   Clear
9:35 PM 73.4 °F 37.4 °F 27% 30.05 in 10.0 mi SE 6.9 mph - N/A   Clear
9:55 PM 71.6 °F 39.2 °F 31% 30.05 in 10.0 mi SE 9.2 mph - N/A   Clear
10:15 PM 71.6 °F 39.2 °F 31% 30.06 in 10.0 mi SSE 5.8 mph - N/A   Clear
10:35 PM 71.6 °F 39.2 °F 31% 30.05 in 10.0 mi SSE 6.9 mph - N/A   Clear
10:55 PM 69.8 °F 39.2 °F 33% 30.06 in 10.0 mi SSE 4.6 mph - N/A   Clear
11:15 PM 69.8 °F 39.2 °F 33% 30.06 in 10.0 mi SSW 3.5 mph - N/A   Clear
11:35 PM 66.2 °F 42.8 °F 43% 30.06 in 10.0 mi SSW 5.8 mph - N/A   Clear
11:55 PM 66.2 °F 42.8 °F 43% 30.06 in 10.0 mi Calm Calm - N/A   Clear